Astoria, OR

2:33 AM PDT on July 25, 2017 (GMT -0700)
Astoria Regional

Weather History for KAST - November, 2012

Change the Weather History Date:

Monday, November 19, 2012

  Actual Average Record
Temperature  
Mean Temperature 54 °F 46 °F  
Max Temperature 57 °F 53 °F 64 °F (1987)
Min Temperature 50 °F 40 °F 24 °F (1977)
Degree Days  
Heating Degree Days 11 19  
Month to date heating degree days 312 325  
Since 1 July heating degree days 1209 1192  
Cooling Degree Days 0 0  
Month to date cooling degree days 0 0  
Year to date cooling degree days 25 12  
Growing Degree Days 2 (Base 50)    
Moisture  
Dew Point 52 °F    
Average Humidity 92    
Maximum Humidity 100    
Minimum Humidity 83    
Precipitation  
Precipitation 1.99 in 0.41 in 2.51 in (1962)
Month to date precipitation 9.41 6.75  
Year to date precipitation 72.29 52.97  
Snow  
Snow 0.00 in - - ()
Month to date snowfall 0.0  
Snow Depth 0.00 in    
Sea Level Pressure  
Sea Level Pressure 29.50 in    
Wind  
Wind Speed 20 mph (SSW)    
Max Wind Speed 46 mph    
Max Gust Speed 74 mph    
Visibility 5 miles    
Events Rain    
T = Trace of Precipitation, MM = Missing Value Source: NWS Daily Summary

Daily Weather History Graph

Daily Weather History Graph

Search for Another Location

Airport or City:

Trip Planner

Search our weather history database for the weather conditions in past years. The results will help you decide how hot, cold, wet, or windy it might be!

Date:

Astronomy

Nov. 19, 2012 Rise Set
Actual Time 7:22 AM PST 4:38 PM PST
Civil Twilight 6:49 AM PST 5:11 PM PST
Nautical Twilight 6:13 AM PST 5:48 PM PST
Astronomical Twilight 5:37 AM PST 6:24 PM PST
Moon 12:20 PM PST (11/19) 11:21 PM PST (11/19)
Length of Visible Light 10h 22m
Length of Day
9h 16m
Waxing Crescent, 42% of the Moon is Illuminated
Nov 19
Waxing Crescent
Nov 20
First Quarter
Nov 28
Full
Dec 6
Last Quarter
Dec 13
New

Hourly Weather History & Observations

Time (PST) Temp. Dew Point Humidity Pressure Visibility Wind Dir Wind Speed Gust Speed Precip Events Conditions
12:02 AM 53.6 °F 51.8 °F 94% 29.53 in 10.0 mi South 18.4 mph 32.2 mph 0.00 in   Overcast
12:09 AM 53.6 °F 51.8 °F 94% 29.54 in 5.0 mi South 18.4 mph 32.2 mph 0.00 in Rain Light Rain
12:18 AM 53.6 °F 51.8 °F 94% 29.54 in 2.5 mi South 20.7 mph 28.8 mph 0.02 in Rain Heavy Rain
12:26 AM 53.6 °F 51.8 °F 94% 29.54 in 2.0 mi South 23.0 mph 29.9 mph 0.07 in Rain Rain
12:30 AM 53.6 °F 51.8 °F 94% 29.54 in 3.0 mi SSW 18.4 mph 29.9 mph 0.08 in Rain Light Rain
12:55 AM 53.1 °F 51.1 °F 93% 29.54 in 3.0 mi SSW 20.7 mph 33.4 mph 0.10 in Rain Rain
1:11 AM 53.6 °F 51.8 °F 94% 29.53 in 2.5 mi South 20.7 mph 39.1 mph 0.04 in Rain Rain
1:18 AM 53.6 °F 51.8 °F 94% 29.54 in 2.5 mi SSW 21.9 mph 35.7 mph 0.06 in Rain Rain
1:25 AM 53.6 °F 51.8 °F 94% 29.53 in 1.8 mi SW 18.4 mph 34.5 mph 0.08 in Rain Heavy Rain
1:31 AM 53.6 °F 51.8 °F 94% 29.53 in 2.0 mi SSW 17.3 mph 34.5 mph 0.13 in Rain Rain
1:40 AM 53.6 °F 51.8 °F 94% 29.52 in 5.0 mi SSW 24.2 mph 35.7 mph 0.14 in Rain Light Rain
1:50 AM 53.6 °F 51.8 °F 94% 29.53 in 6.0 mi SSW 18.4 mph 32.2 mph 0.15 in Rain Light Rain
1:55 AM 54.0 °F 52.0 °F 93% 29.53 in 5.0 mi South 17.3 mph 32.2 mph 0.15 in Rain Light Rain
2:55 AM 54.0 °F 52.0 °F 93% 29.52 in 3.0 mi South 16.1 mph 26.5 mph 0.12 in Rain Rain
3:12 AM 53.6 °F 51.8 °F 94% 29.51 in 2.5 mi South 26.5 mph 35.7 mph 0.07 in Rain Heavy Rain
3:25 AM 53.6 °F 51.8 °F 94% 29.51 in 4.0 mi South 19.6 mph 34.5 mph 0.13 in Rain Rain
3:32 AM 53.6 °F 51.8 °F 94% 29.50 in 7.0 mi South 18.4 mph 32.2 mph 0.14 in Rain Light Rain
3:55 AM 54.0 °F 51.1 °F 90% 29.47 in 2.5 mi SSW 21.9 mph 33.4 mph 0.25 in Rain Heavy Rain
4:07 AM 53.6 °F 51.8 °F 94% 29.46 in 4.0 mi South 21.9 mph 40.3 mph 0.03 in Rain Rain
4:55 AM 55.0 °F 52.0 °F 89% 29.45 in 3.0 mi South 34.5 mph 52.9 mph 0.14 in Rain Heavy Rain
5:18 AM 55.4 °F 51.8 °F 88% 29.45 in 4.0 mi South 31.1 mph 48.3 mph 0.07 in Rain Rain
5:35 AM 55.4 °F 51.8 °F 88% 29.44 in 3.0 mi South 34.5 mph 57.5 mph 0.11 in Rain Rain
5:55 AM 55.0 °F 52.0 °F 89% 29.44 in 7.0 mi SSW 28.8 mph 58.7 mph 0.15 in Rain Light Rain
6:55 AM 55.0 °F 52.0 °F 89% 29.42 in 4.0 mi SSW 28.8 mph 42.6 mph 0.14 in Rain Rain
8:29 AM 55.4 °F 53.6 °F 94% 29.39 in 3.0 mi South 38.0 mph 64.4 mph 0.12 in Rain Rain
8:53 AM 55.4 °F 53.6 °F 94% 29.38 in 2.0 mi South 40.3 mph 66.7 mph 0.16 in Rain Light Rain
8:55 AM 55.9 °F 53.1 °F 90% 29.38 in 1.8 mi South 38.0 mph 66.7 mph 0.16 in Rain Rain
9:05 AM 55.4 °F 53.6 °F 94% 29.38 in 3.0 mi South 38.0 mph 65.6 mph 0.02 in Rain Light Rain
9:55 AM 57.0 °F 53.1 °F 87% 29.37 in 6.0 mi South 31.1 mph 69.0 mph 0.03 in Rain Light Rain
10:26 AM 57.2 °F 53.6 °F 88% 29.38 in 1.8 mi South 40.3 mph 63.3 mph 0.03 in Rain Heavy Rain
10:55 AM 57.0 °F 54.0 °F 89% 29.36 in 2.0 mi South 26.5 mph 58.7 mph 0.14 in Rain Rain
11:09 AM 57.2 °F 53.6 °F 88% 29.36 in 1.5 mi South 35.7 mph 64.4 mph 0.02 in Rain Rain
11:20 AM 57.2 °F 53.6 °F 88% 29.36 in 2.0 mi South 35.7 mph 59.8 mph 0.05 in Rain Rain
11:44 AM 57.2 °F 53.6 °F 88% 29.41 in 0.8 mi SSW 39.1 mph 59.8 mph 0.10 in Rain Rain
11:55 AM 52.0 °F 51.1 °F 97% 29.42 in 1.0 mi SSW 27.6 mph 58.7 mph 0.29 in Rain Heavy Rain
12:07 PM 53.6 °F 51.8 °F 94% 29.42 in 0.8 mi SW 29.9 mph 44.9 mph 0.12 in Rain Heavy Rain
12:15 PM 53.6 °F 53.6 °F 100% 29.43 in 1.5 mi SSW 27.6 mph 43.7 mph 0.20 in Rain Rain
12:28 PM 53.6 °F 51.8 °F 94% 29.41 in 3.0 mi SSW 21.9 mph 38.0 mph 0.26 in Rain Light Rain
12:55 PM 55.0 °F 52.0 °F 89% 29.42 in 8.0 mi SSW 20.7 mph 38.0 mph 0.31 in Rain Light Rain
1:37 PM 55.4 °F 53.6 °F 94% 29.42 in 6.0 mi SSW 25.3 mph 36.8 mph 0.00 in Rain Light Rain
1:55 PM 55.9 °F 53.1 °F 90% 29.44 in 9.0 mi SSW 26.5 mph 41.4 mph 0.00 in   Overcast
2:02 PM 55.4 °F 53.6 °F 94% 29.44 in 10.0 mi SSW 26.5 mph 42.6 mph N/A   Overcast
2:34 PM 55.4 °F 53.6 °F 94% 29.46 in 7.0 mi SSW 25.3 mph 41.4 mph 0.01 in   Overcast
2:55 PM 55.9 °F 53.1 °F 90% 29.48 in 7.0 mi SSW 25.3 mph 42.6 mph 0.01 in Rain Light Rain
3:05 PM 55.4 °F 53.6 °F 94% 29.47 in 7.0 mi SSW 26.5 mph 46.0 mph 0.00 in   Overcast
3:38 PM 55.4 °F 53.6 °F 94% 29.49 in 7.0 mi SSW 23.0 mph 40.3 mph 0.00 in   Overcast
3:55 PM 55.0 °F 52.0 °F 89% 29.50 in 6.0 mi SSW 20.7 mph 31.1 mph 0.00 in   Overcast
4:55 PM 54.0 °F 52.0 °F 93% 29.53 in 7.0 mi SW 15.0 mph 23.0 mph 0.00 in   Overcast
5:28 PM 53.6 °F 51.8 °F 94% 29.54 in 7.0 mi SSW 11.5 mph 23.0 mph N/A   Overcast
5:38 PM 53.6 °F 51.8 °F 94% 29.55 in 8.0 mi SW 11.5 mph 23.0 mph N/A   Overcast
5:55 PM 54.0 °F 51.1 °F 90% 29.56 in 8.0 mi SW 11.5 mph 20.7 mph N/A   Overcast
6:02 PM 53.6 °F 51.8 °F 94% 29.56 in 8.0 mi SSW 10.4 mph - N/A   Overcast
6:13 PM 53.6 °F 51.8 °F 94% 29.56 in 8.0 mi SW 11.5 mph - N/A   Overcast
6:28 PM 53.6 °F 51.8 °F 94% 29.58 in 9.0 mi SW 10.4 mph - N/A   Overcast
6:36 PM 53.6 °F 51.8 °F 94% 29.58 in 9.0 mi SW 15.0 mph 21.9 mph N/A   Overcast
6:55 PM 53.1 °F 50.0 °F 89% 29.58 in 9.0 mi SW 11.5 mph - N/A   Mostly Cloudy
7:03 PM 53.6 °F 51.8 °F 94% 29.58 in 8.0 mi SW 10.4 mph - N/A   Mostly Cloudy
7:17 PM 53.6 °F 50.0 °F 88% 29.59 in 9.0 mi SSW 13.8 mph 20.7 mph N/A   Mostly Cloudy
7:55 PM 53.1 °F 48.9 °F 86% 29.61 in 10.0 mi SSW 16.1 mph 24.2 mph N/A   Clear
8:55 PM 53.1 °F 48.9 °F 86% 29.63 in 10.0 mi SSW 11.5 mph 20.7 mph N/A   Scattered Clouds
9:55 PM 52.0 °F 48.0 °F 86% 29.66 in 10.0 mi SSW 10.4 mph 17.3 mph N/A   Mostly Cloudy
10:55 PM 52.0 °F 46.9 °F 83% 29.66 in 10.0 mi South 8.1 mph - N/A   Clear
11:40 PM 51.8 °F 48.2 °F 88% 29.67 in 9.0 mi South 6.9 mph - N/A   Mostly Cloudy
11:55 PM 51.1 °F 48.0 °F 89% 29.67 in 9.0 mi South 10.4 mph - N/A   Mostly Cloudy